[Iaude] MPEC J209: 2024 JX5 [a=1.77,e=0.64,i=19.1,H=20.9]

mpec at cfa.harvard.edu mpec at cfa.harvard.edu
Wed May 8 21:08:23 EDT 2024


M.P.E.C. 2024-J209                                  Issued 2024 May 9, 01:06 UT

     The Minor Planet Electronic Circulars contain information on unusual
         minor planets, routine data on comets and natural satellites,
         and occasional editorial announcements.  They are published
    on behalf of Division F of the International Astronomical Union by the
          Minor Planet Center, Smithsonian Astrophysical Observatory,
                          Cambridge, MA 02138, U.S.A.
			  
             Prepared using the Tamkin Foundation Computer Network

                              MPC at CFA.HARVARD.EDU
            URL https://www.minorplanetcenter.net/    ISSN 1523-6714

                                    2024 JX5                                    


Observations:
     K24J05X  C2024 05 03.59401619 09 14.602+57 54 55.99         21.45GVEJ209F52
     K24J05X  C2024 05 03.60266919 09 09.177+57 54 35.03         20.61GVEJ209F52
     K24J05X  C2024 05 03.61127919 09 03.754+57 54 14.48         21.34GVEJ209F52
     K24J05X*1C2024 05 06.39492318 42 33.228+55 52 43.86         20.66GVEJ209G96
     K24J05X 1C2024 05 06.40011518 42 30.341+55 52 29.71         21.23GVEJ209G96
     K24J05X 1C2024 05 06.40531518 42 27.572+55 52 15.56         21.43GVEJ209G96
     K24J05X 1C2024 05 06.41050918 42 24.736+55 52 00.88         22.13GVEJ209G96
     K24J05X KC2024 05 06.43055818 42 13.684+55 51 05.40         20.92GVEJ209I52
     K24J05X KC2024 05 06.43300918 42 12.373+55 50 58.56         21.08GVEJ209I52
     K24J05X KC2024 05 06.43546418 42 10.980+55 50 52.04         20.98GVEJ209I52
     K24J05X KC2024 05 07.33862918 34 20.888+55 07 40.44         20.92GVEJ209I52
     K24J05X KC2024 05 07.34096318 34 19.722+55 07 33.85         21.37GVEJ209I52
     K24J05X KC2024 05 07.34329518 34 18.476+55 07 27.30         21.14GVEJ209I52
     K24J05X KC2024 05 07.34561218 34 17.353+55 07 18.88         19.88GVEJ209I52
     K24J05X  C2024 05 07.37790318 34 00.241+55 05 48.39         20.9 GVEJ209H01
     K24J05X  C2024 05 07.38349718 33 57.317+55 05 32.24         20.8 GVEJ209H01
     K24J05X  C2024 05 07.40005818 33 48.652+55 04 44.43         20.6 GVEJ209H01
     K24J05X  C2024 05 07.40367818 33 46.763+55 04 33.98         20.9 GVEJ209H01
     K24J05X KC2024 05 08.34132118 26 00.74 +54 18 02.9          20.6 GVEJ209H21
     K24J05X KC2024 05 08.34271818 26 00.01 +54 17 59.2          21.1 GVEJ209H21
     K24J05X KC2024 05 08.34551718 25 58.58 +54 17 50.8          20.7 GVEJ209H21
     K24J05X KC2024 05 08.40742418 25 28.680+54 14 46.30         21.00GVEJ209I52
     K24J05X KC2024 05 08.41149418 25 26.600+54 14 34.00               VEJ209I52
     K24J05X KC2024 05 08.41560518 25 24.620+54 14 21.80         21.15GVEJ209I52

Observer details:
F52 Pan-STARRS 2, Haleakala.  Observers J. Herman, T. Lowe, P. Minguez, A.
    Schultz, I. Smith.  Measurers K. Chambers, T. de Boer, J. Fairlamb, H.
    Gao, M. Huber, C.-C. Lin, E. Magnier, Y. Ramanjooloo, R. Wainscoat, R.
    Weryk.  1.8-m Ritchey-Chretien + CCD.
G96 Mt. Lemmon Survey.  Observer G. J. Leonard.  Measurers T. Beuden, V. F.
    Carvajal, D. Fay, J. B. Fazekas, D. C. Fuls, A. R. Gibbs, A. D. Grauer, H.
    Groeller, J. K. Hogan, R. A. Kowalski, S. M. Larson, G. J. Leonard, D.
    Rankin, R. L. Seaman, F. C. Shelly, K. W. Wierzchos.  1.5-m reflector +
    10K CCD.
H01 Magdalena Ridge Observatory, Socorro.  Observers W. H. Ryan, E. V. Ryan.
    Measurer W. H. Ryan.  2.4-m f/8.9 Ritchey-Chretien + CCD.
H21 Astronomical Research Observatory, Westfield.  Observer R. Holmes.
    Measurers T. Linder, R. Holmes, L. Horn.  0.76-m f/3.0 astrograph + CCD.
I52 Steward Observatory, Mt. Lemmon Station.  Observers R. A. Kowalski, H.
    Groeller.  Measurers T. Beuden, V. F. Carvajal, D. Fay, J. B. Fazekas, D.
    C. Fuls, A. R. Gibbs, A. D. Grauer, H. Groeller, J. K. Hogan, R. A.
    Kowalski, S. M. Larson, G. J. Leonard, D. Rankin, R. L. Seaman, F. C.
    Shelly, K. W. Wierzchos.  1.0-m prime focus + CCD.

Orbital elements:
2024 JX5                                                 Earth MOID = 0.2939 AU
Epoch 2024 Mar. 31.0 TT = JDT 2460400.5                 MPC                     
M   8.49182              (2000.0)            P               Q                  
n   0.41948557     Peri.    9.42608     -0.70765866     -0.65529930             
a   1.7673587      Node   126.21252     +0.62504866     -0.75496308             
e   0.6393799      Incl.   19.11437     +0.32944406     +0.02477034             
P   2.35           H   20.98          G   0.15           U   9                  
Residuals in seconds of arc
240503 F52  0.0   0.1+    240506 I52  0.3+  0.0     240507 H01  0.1-  0.1+
240503 F52  0.1+  0.1-    240506 I52  0.1-  0.4+    240507 H01  0.0   0.1+
240503 F52  0.0   0.0     240507 I52  0.3-  0.1-    240508 H21  0.2+  0.4-
240506 G96  0.2-  0.3-    240507 I52  0.2+  0.1-    240508 H21  0.0   0.0
240506 G96  0.5-  0.1-    240507 I52  0.1-  0.0     240508 H21  0.3-  0.0
240506 G96  0.2+  0.1+    240507 I52 (0.7+  1.8-)   240508 I52  0.0   0.1+
240506 G96  0.4+  0.2-    240507 H01  0.1-  0.1+    240508 I52  0.4-  0.0
240506 I52  0.0   0.1+    240507 H01  0.1-  0.1+    240508 I52  0.2+  0.2+

Ephemeris:
2024 JX5                 a,e,i = 1.77, 0.64, 19                  q = 0.6373
Date    TT    R. A. (2000) Decl.     Delta      r    Elong.  Phase     V
2024 04 09    00 09 01.6 +52 04 09   0.3479  0.8018    46.3   115.4    22.7
...
2024 04 24    21 06 34.3 +61 34 23   0.3336  0.9547    71.6    89.0    21.6
...
2024 05 02    19 26 03.0 +58 55 02   0.3444  1.0404    85.7    75.0    21.4
...
2024 05 08    18 28 47.7 +54 35 05   0.3590  1.1049    95.8    65.3    21.3
2024 05 09    18 20 45.9 +53 44 29   0.3620  1.1156    97.4    63.8    21.3
2024 05 10    18 13 07.8 +52 52 19   0.3651  1.1263    99.0    62.3    21.3
...
2024 05 16    17 34 36.0 +47 16 01   0.3875  1.1901   108.1    53.8    21.3
...
2024 05 24    16 58 21.9 +39 21 06   0.4277  1.2737   118.6    44.3    21.4
...
2024 06 08    16 19 31.8 +25 21 18   0.5379  1.4246   130.6    32.8    21.8

A. U. Tomatic                (C) Copyright 2024 MPC           M.P.E.C. 2024-J209





More information about the Iaude mailing list